DMSP 5D-2 F11 DEB

基本信息
目录编号:
29088
目录名称:
DMSP 5D-2 F11 DEB
国际标识:
1991-082CH
轨道中心:
EARTH
物体状态:
已陨落(2025-09-24)
发射日期:
1991-11-28 UTC
轨道信息
数据来源: 国际轨道数据
星历时间: 2025-09-19T21:54:26+0800
半长轴: 6747.926km
偏心率: 0.0019746
轨道倾角: 98.501°
近地点辐角: 295.831°
升交点赤经: 27.154°
平近点角: 64.091°
近地点: 356.466km
远地点: 383.116km
周期: 91.942分钟
每日圈数: 15.662003
详细信息
发射场:
AFWTR
轨道高度:
LEO
数据来源:
AOE Integration Group
参考系:
TEME
时间系统:
UTC
历元类型:
SGP4
2D轨道图
3D轨道图
轨道高度分析图
轨道倾角分析图
轨道综合分析图
查看轨道综合分析图